Preview of NWS' New Version of Forecast
This preview is not operational and should not be used for support decisions.

Regional Weather Roundup (RWR)

Issued by National Weather Service (NWS)

                            
000
ASCA42 TJSJ 201910
RWRPR 
PUERTO RICO/U.S. VIRGIN ISLANDS HOURLY WEATHER ROUNDUP
NATIONAL WEATHER SERVICE SAN JUAN PR
300 PM AST TUE AUG 20 2019

PRZ001>002-007>008-010-202000-
PUERTO RICO
  
CITY           SKY/WX    TMP DP  RH WIND       PRES   REMARKS
SAN JUAN LMM   MOSUNNY   88  75  66 E15       30.01F HX  97           
AGUADILLA      CLOUDY    81  73  78 SE8       30.05R                  
CEIBA          MOSUNNY   88  79  74 E9        30.03F HX 102           
$$

VIZ001>002-202000-
U.S. VIRGIN ISLANDS
  
CITY           SKY/WX    TMP DP  RH WIND       PRES   REMARKS
CHARLOTTE AMA  MOSUNNY   84  75  74 SE12      30.00F HX  92           
CHRISTIANSTED  MOSUNNY   88  73  62 E15       30.01F HX  96           
$$

HOURLY WEATHER ROUNDUP FOR THE NEWS MEDIA
  
CITY           SKY/WX    TMP DP  RH WIND       PRES   REMARKS
ORLANDO        PTSUNNY   83  69  62 SE16      30.09S                  
NEW YORK       PTSUNNY   83  66  56 S12       30.10S                  
NEWARK         PTSUNNY   87  66  49 S12       30.07S                  
CHICAGO        CLOUDY    72  68  87 E5        29.99R                  
HARTFORD       FAIR      86  55  34 W9        30.04F                  
BOSTON         FAIR      82  61  48 E10       30.05S                  
DALLAS         FAIR      99  68  36 S6        30.00F HX 104           
PHILADELPHIA   PTSUNNY   91  70  49 SE6       30.06F HX  96           
LOS ANGELES    FAIR      77  63  61 W12       29.95F                  
WASHINGTON DC  PTSUNNY   91  70  49 E8        30.03F HX  96